This is the latest recevied weather packets stored in our database for station/object K6GMW. If no packets are shown the sender has not sent any weather packets the latest 10 day(s).
| Time | Temp. | Humidity | Pressure | Rain* | Wind** | Luminosity | Snow |
|---|---|---|---|---|---|---|---|
| 1788536901 | 32.22° C | 61% | 1017.2 hPa | 0 mm | - | 755 W/m² | - |
| 1788536595 | 33.33° C | 58% | 1017.2 hPa | 0 mm | - | 727 W/m² | - |
| 1788536291 | 32.22° C | 61% | 1017.2 hPa | 0 mm | - | 719 W/m² | - |
| 1788535986 | 31.67° C | 63% | 1017.2 hPa | 0 mm | - | 703 W/m² | - |
| 1788535683 | 31.67° C | 64% | 1016.9 hPa | 0 mm | - | 684 W/m² | - |
| 1788535377 | 31.67° C | 64% | 1017 hPa | 0 mm | - | 668 W/m² | - |
| 1788535072 | 31.67° C | 64% | 1017.2 hPa | 0 mm | - | 654 W/m² | - |
| 1788534771 | 31.11° C | 67% | 1017.2 hPa | 0 mm | - | 631 W/m² | - |
| 1788534468 | 31.11° C | 69% | 1017.1 hPa | 0 mm | - | 605 W/m² | - |
| 1788534163 | 31.11° C | 68% | 1017.2 hPa | 0 mm | - | 597 W/m² | - |
| 1788533860 | 30.56° C | 71% | 1017.2 hPa | 0 mm | - | 588 W/m² | - |
| 1788533556 | 30.56° C | 72% | 1017.1 hPa | 0 mm | - | 569 W/m² | - |
| 1788533252 | 30° C | 73% | 1017 hPa | 0 mm | - | 549 W/m² | - |
| 1788532947 | 30° C | 73% | 1017 hPa | 0 mm | - | 529 W/m² | - |
| 1788532643 | 29.44° C | 75% | 1017.3 hPa | 0 mm | - | 508 W/m² | - |
| 1788532340 | 29.44° C | 75% | 1017.2 hPa | 0 mm | - | 489 W/m² | - |
| 1788532036 | 29.44° C | 76% | 1017.2 hPa | 0 mm | - | 471 W/m² | - |
| 1788531731 | 28.89° C | 77% | 1017 hPa | 0 mm | - | 453 W/m² | - |
| 1788531431 | 28.33° C | 79% | 1017.1 hPa | 0 mm | - | 436 W/m² | - |
| 1788531127 | 28.33° C | 79% | 1017.1 hPa | 0 mm | - | 415 W/m² | - |
| 1788530822 | 27.78° C | 81% | 1017.1 hPa | 0 mm | - | 385 W/m² | - |
| 1788530517 | 27.78° C | 80% | 1017.2 hPa | 0 mm | - | 371 W/m² | - |
| 1788530216 | 27.22° C | 83% | 1017.1 hPa | 0 mm | - | 300 W/m² | - |
| 1788529912 | 27.22° C | 84% | 1017 hPa | 0 mm | - | 273 W/m² | - |
| 1788529608 | 26.67° C | 87% | 1016.9 hPa | 0 mm | - | 245 W/m² | - |
* Rain latest hour (hover to see other rain measurements)
** Current wind speed in m/s (hover to see current wind gust speed)